This demonstration page uses our WeatherBlox Daily Observations layout. Learn more.

Left ArrowRight Arrow

34.16533, -84.80231

Hourly Observations for September 21, 2022

Temp ( °F °C ) Dew Point ( °F °C ) Humidity (%) Winds ( mph kmh ) Pressure ( in mb ) Visibility ( mi km ) Precip ( " mm )
12:15 am 00:15 Clear 70 21 68 20 94 94 Calm 30.00 1016 9 14 0.00 0.00
12:35 am 00:35 Clear 70 21 68 20 94 94 Calm 30.00 1016 8 13 0.00 0.00
12:55 am 00:55 Clear 68 20 66 19 94 94 Calm 30.00 1016 9 14 0.00 0.00
1:15 am 01:15 Clear 68 20 66 19 94 94 Calm 30.00 1016 9 14 0.00 0.00
1:35 am 01:35 Clear 68 20 66 19 94 94 Calm 30.00 1016 9 14 0.00 0.00
1:55 am 01:55 Clear 68 20 66 19 94 94 Calm 29.99 1016 8 13 0.00 0.00
5:55 am 05:55 Cloudy 64 18 64 18 100 100 Calm 30.01 1016 8 13 0.00 0.00
6:15 am 06:15 Cloudy with Mist and Fog 64 18 64 18 100 100 Calm 30.01 1016 6 10 0.00 0.00
6:35 am 06:35 Mostly Cloudy with Mist and Fog 64 18 64 18 100 100 Calm 30.02 1016 2 3 0.00 0.00
6:55 am 06:55 Cloudy 64 18 64 18 100 100 Calm 30.02 1016 7 11 0.00 0.00
7:15 am 07:15 Mostly Cloudy 64 18 64 18 100 100 Calm 30.03 1017 8 13 0.00 0.00
7:35 am 07:35 Partly Cloudy with Mist and Fog 64 18 64 18 100 100 Calm 30.03 1017 6 10 0.00 0.00
7:55 am 07:55 Partly Cloudy with Mist and Fog 64 18 64 18 100 100 Calm 30.04 1017 4 6 0.00 0.00
8:15 am 08:15 Partly Cloudy with Mist and Fog 64 18 64 18 100 100 Calm 30.05 1017 3 5 0.00 0.00
8:35 am 08:35 Partly Cloudy with Mist and Fog 66 19 64 18 94 94 Calm 30.04 1017 6 10 0.00 0.00
8:55 am 08:55 Sunny with Mist and Fog 68 20 66 19 94 94 Calm 30.04 1017 6 10 0.00 0.00
9:15 am 09:15 Sunny 70 21 68 20 94 94 Calm 30.04 1017 8 13 0.00 0.00
9:35 am 09:35 Sunny with Mist and Fog 72 22 68 20 88 88 Calm 30.05 1018 6 10 0.00 0.00
9:55 am 09:55 Hazy 72 22 68 20 88 88 Calm 30.05 1018 6 10 0.00 0.00
10:15 am 10:15 Sunny 75 24 68 20 78 78 Calm 30.04 1017 8 13 0.00 0.00
10:35 am 10:35 Sunny 77 25 68 20 74 74 Calm 30.04 1017 10 16 0.00 0.00
10:55 am 10:55 Sunny 79 26 70 21 74 74 Calm 30.04 1017 10 16 0.00 0.00
11:15 am 11:15 Sunny 81 27 70 21 70 70 Calm 30.02 1017 10 16 0.00 0.00
11:35 am 11:35 Sunny 82 28 72 22 70 70 Calm 30.02 1017 10 16 0.00 0.00
11:55 am 11:55 Sunny 82 28 70 21 66 66 Calm 30.01 1016 10 16 0.00 0.00
12:15 pm 12:15 Sunny 84 29 70 21 62 62 Calm 30.00 1016 9 14 0.00 0.00
12:35 pm 12:35 Sunny 86 30 70 21 59 59 Calm 30.00 1016 10 16 0.00 0.00
12:55 pm 12:55 Sunny 88 31 70 21 55 55 Calm 30.00 1016 10 16 0.00 0.00
1:15 pm 13:15 Sunny 86 30 68 20 55 55 NW 3 6 29.99 1015 10 16 0.00 0.00
1:35 pm 13:35 Sunny 88 31 68 20 52 52 Calm 29.98 1015 10 16 0.00 0.00
1:55 pm 13:55 Sunny 88 31 66 19 49 49 NNW 3 6 29.98 1015 10 16 0.00 0.00
2:15 pm 14:15 Sunny 88 31 66 19 49 49 Calm 29.96 1015 10 16 0.00 0.00
2:35 pm 14:35 Sunny 90 32 66 19 46 46 W 6 9 29.95 1014 10 16 0.00 0.00
2:55 pm 14:55 Sunny 90 32 66 19 46 46 W 5 7 29.94 1014 10 16 0.00 0.00
3:15 pm 15:15 Sunny 90 32 66 19 46 46 Calm 29.94 1014 10 16 0.00 0.00
3:35 pm 15:35 Sunny 90 32 66 19 46 46 Calm 29.93 1014 9 14 0.00 0.00
3:55 pm 15:55 Sunny 90 32 66 19 46 46 Calm 29.92 1013 10 16 0.00 0.00
4:15 pm 16:15 Sunny 91 33 64 18 41 41 VRB 5 7 29.92 1013 10 16 0.00 0.00
4:35 pm 16:35 Sunny 90 32 64 18 43 43 Calm 29.92 1013 10 16 0.00 0.00
4:55 pm 16:55 Sunny 90 32 64 18 43 43 Calm 29.92 1013 10 16 0.00 0.00
5:15 pm 17:15 Sunny 91 33 66 19 44 44 Calm 29.91 1013 9 14 0.00 0.00
5:35 pm 17:35 Sunny 90 32 66 19 46 46 VRB 3 6 29.91 1013 10 16 0.00 0.00
5:55 pm 17:55 Sunny 90 32 68 20 49 49 Calm 29.91 1013 10 16 0.00 0.00
6:15 pm 18:15 Sunny 90 32 68 20 49 49 Calm 29.91 1013 10 16 0.00 0.00
6:35 pm 18:35 Sunny 90 32 68 20 49 49 Calm 29.91 1013 10 16 0.00 0.00
6:55 pm 18:55 Sunny 88 31 66 19 49 49 Calm 29.91 1013 10 16 0.00 0.00
7:15 pm 19:15 Sunny 86 30 68 20 55 55 Calm 29.93 1013 10 16 0.00 0.00
7:35 pm 19:35 Sunny 84 29 68 20 58 58 Calm 29.92 1013 10 16 0.00 0.00
7:55 pm 19:55 Clear 82 28 70 21 66 66 Calm 29.93 1014 10 16 0.00 0.00
8:15 pm 20:15 Clear 79 26 72 22 79 79 Calm 29.93 1013 9 14 0.00 0.00
8:35 pm 20:35 Clear 77 25 70 21 79 79 Calm 29.94 1014 10 16 0.00 0.00
8:55 pm 20:55 Clear 77 25 70 21 79 79 Calm 29.95 1014 10 16 0.00 0.00
9:15 pm 21:15 Clear 75 24 70 21 83 83 Calm 29.95 1014 10 16 0.00 0.00
9:35 pm 21:35 Clear 73 23 70 21 89 89 Calm 29.95 1014 10 16 0.00 0.00
9:55 pm 21:55 Clear 73 23 70 21 89 89 Calm 29.97 1015 10 16 0.00 0.00
10:15 pm 22:15 Clear 72 22 70 21 94 94 Calm 29.97 1015 10 16 0.00 0.00
10:35 pm 22:35 Clear 72 22 70 21 94 94 Calm 29.97 1015 10 16 0.00 0.00
10:55 pm 22:55 Clear 72 22 68 20 88 88 Calm 29.97 1015 10 16 0.00 0.00
11:15 pm 23:15 Clear 70 21 70 21 100 100 Calm 29.97 1015 8 13 0.00 0.00
11:35 pm 23:35 Clear 70 21 68 20 94 94 Calm 29.97 1015 9 14 0.00 0.00
11:55 pm 23:55 Clear 70 21 68 20 94 94 Calm 29.97 1015 10 16 0.00 0.00

Powered by AerisWeather